CW3782 Weather Reports


Display with metric or nautical units.
time (UTC)temp
F
wind
direction
speed
MPH
gust
MPH
rain 1hr
in
rain 24hr
in
rain mn
in
humidity
%
barometer
mb
20260508054613 54 194 0.0 1.0 0.00 0.00 0.00 99 1012.9
20260508054204 54 144 0.0 0.0 0.00 0.16 0.00 94 1011.6
20260508054110 54 36 1.0 2.0 0.00 0.00 0.00 99 1013.1
20260508053704 54 144 0.0 0.0 0.00 0.16 0.00 94 1011.7
20260508053607 54 103 0.0 1.0 0.00 0.00 0.00 99 1013.0
20260508053204 54 144 0.0 0.0 0.00 0.17 0.00 94 1011.7
20260508053105 54 14 0.0 2.0 0.00 0.00 0.00 99 1013.1
20260508052602 54 322 0.0 2.0 0.00 0.00 0.00 99 1013.1
20260508052059 54 279 0.0 2.0 0.00 0.00 0.00 99 1013.3
20260508051704 54 144 0.0 0.0 0.00 0.21 0.00 94 1011.7
20260508051555 54 89 0.0 0.0 0.00 0.00 0.00 99 1013.1
20260508051050 54 49 0.0 1.0 0.00 0.00 0.00 99 1013.1
20260508050704 55 144 0.0 0.0 0.00 0.24 0.00 94 1011.6
20260508050547 54 79 0.0 2.0 0.00 0.00 0.00 99 1012.9
20260508050044 54 42 0.0 2.0 0.00 0.00 0.00 99 1013.1
20260508045704 55 144 0.0 0.0 0.00 0.28 0.27 94 1011.7
20260508045540 54 306 0.0 1.0 0.00 0.00 0.00 99 1013.0
20260508045038 54 50 0.0 2.0 0.00 0.00 0.00 99 1013.0
20260508044535 54 53 0.0 1.0 0.00 0.00 0.00 99 1012.9
20260508044031 54 309 0.0 0.0 0.00 0.00 0.00 99 1013.0
20260508043528 54 25 0.0 2.0 0.00 0.00 0.00 99 1013.0
20260508043204 55 144 0.0 0.0 0.00 0.40 0.27 94 1011.5
20260508043026 54 69 0.0 2.0 0.00 0.00 0.00 99 1012.9
20260508042522 54 55 0.0 1.0 0.00 0.00 0.00 99 1013.1
20260508042205 55 144 0.0 0.0 0.00 0.44 0.27 94 1011.6
20260508042019 54 119 0.0 2.0 0.00 0.00 0.00 99 1013.0
20260508041516 54 29 0.0 2.0 0.00 0.00 0.00 99 1013.1
20260508041012 54 315 0.0 1.0 0.00 0.00 0.00 99 1012.7
20260508040704 55 144 0.0 0.0 0.00 0.44 0.27 94 1011.6
20260508040509 54 11 0.0 2.0 0.00 0.00 0.00 99 1012.8
20260508040203 55 144 0.0 0.0 0.00 0.44 0.27 94 1011.5
20260508040007 54 42 1.0 2.0 0.00 0.00 0.00 99 1012.7
20260508035704 55 144 0.0 0.0 0.00 0.44 0.27 94 1011.4
20260508035504 54 297 0.0 0.0 0.00 0.00 0.00 99 1012.9
20260508035000 55 269 0.0 1.0 0.00 0.00 0.00 99 1012.8
20260508034458 55 339 0.0 1.0 0.00 0.00 0.00 99 1012.9
20260508034205 55 144 0.0 0.0 0.00 0.44 0.27 94 1011.1
20260508033954 55 322 0.0 1.0 0.00 0.00 0.00 99 1012.6
20260508033452 55 335 1.0 2.0 0.00 0.00 0.00 99 1012.5
20260508032950 55 230 0.0 1.0 0.00 0.00 0.00 99 1012.4
20260508032705 55 144 0.0 0.0 0.00 0.45 0.27 94 1010.8
20260508032447 55 62 0.0 1.0 0.00 0.00 0.00 99 1012.2
20260508031944 55 29 0.0 1.0 0.00 0.00 0.00 99 1012.1
20260508031441 55 322 0.0 2.0 0.00 0.00 0.00 99 1012.2
20260508030937 55 89 0.0 2.0 0.00 0.00 0.00 99 1012.1
20260508030434 55 333 0.0 2.0 0.00 0.00 0.00 99 1012.3
20260508025931 55 309 0.0 1.0 0.00 0.00 0.00 99 1012.3
20260508025705 55 173 0.0 1.0 0.00 0.45 0.27 94 1010.8
20260508025427 54 89 0.0 1.0 0.00 0.00 0.00 99 1012.2
20260508024924 54 60 0.0 1.0 0.00 0.00 0.00 99 1012.1
20260508024421 54 89 0.0 0.0 0.00 0.00 0.00 99 1012.1
20260508024206 55 173 0.0 0.0 0.01 0.45 0.27 94 1010.6
20260508023918 54 74 0.0 1.0 0.00 0.00 0.00 99 1011.9
20260508023706 55 173 0.0 0.0 0.01 0.45 0.27 94 1010.6
20260508023415 54 89 0.0 0.0 0.00 0.00 0.00 99 1012.1
20260508023206 55 173 0.0 0.0 0.01 0.45 0.27 94 1010.5
20260508022912 54 89 0.0 1.0 0.00 0.00 0.00 99 1011.9
20260508022705 55 173 0.0 0.0 0.01 0.45 0.27 94 1010.5
20260508022407 54 77 0.0 1.0 0.00 0.00 0.00 99 1011.9
20260508021904 54 37 0.0 1.0 0.00 0.00 0.00 99 1011.8
20260508021705 55 173 0.0 1.0 0.01 0.45 0.27 94 1010.5
20260508021400 55 130 0.0 1.0 0.00 0.00 0.00 99 1011.8
20260508021205 55 173 0.0 1.0 0.01 0.45 0.27 94 1010.4
20260508020856 55 19 0.0 2.0 0.00 0.00 0.00 99 1011.8
20260508020354 55 29 0.0 2.0 0.00 0.00 0.00 99 1011.5
20260508020206 55 173 0.0 0.0 0.01 0.45 0.27 94 1010.0
20260508015852 55 48 0.0 1.0 0.00 0.00 0.00 99 1011.6
20260508015706 55 173 0.0 1.0 0.01 0.45 0.27 94 1010.1
20260508015349 55 81 0.0 2.0 0.00 0.00 0.00 99 1011.6
20260508014845 55 22 0.0 1.0 0.00 0.00 0.00 99 1011.5
20260508014705 55 173 0.0 1.0 0.00 0.44 0.26 94 1010.3
20260508014343 55 333 0.0 0.0 0.00 0.00 0.00 99 1011.5
20260508014205 55 173 0.0 0.0 0.00 0.44 0.26 94 1010.1
20260508013838 55 333 0.0 1.0 0.00 0.00 0.00 99 1011.6
20260508013334 55 306 0.0 1.0 0.00 0.00 0.00 99 1011.5
20260508012832 55 62 0.0 1.0 0.00 0.00 0.00 99 1011.2
20260508012329 55 44 0.0 1.0 0.00 0.00 0.00 99 1011.0
20260508011827 55 103 0.0 2.0 0.00 0.00 0.00 99 1010.9
20260508011706 55 173 0.0 1.0 0.00 0.44 0.26 93 1009.5
20260508011324 55 284 0.0 1.0 0.00 0.00 0.00 99 1010.8
20260508011205 55 173 0.0 1.0 0.00 0.44 0.26 93 1009.5
20260508010821 55 69 0.0 2.0 0.00 0.00 0.00 99 1010.8
20260508010319 55 37 0.0 2.0 0.00 0.00 0.00 99 1010.7
20260508005815 55 44 0.0 1.0 0.00 0.00 0.00 99 1010.7
20260508005312 55 62 0.0 1.0 0.00 0.00 0.00 99 1010.6
20260508005206 55 173 0.0 0.0 0.00 0.44 0.26 93 1009.4
20260508004809 55 37 0.0 2.0 0.00 0.00 0.00 99 1010.9
20260508004706 55 173 0.0 2.0 0.00 0.44 0.26 93 1009.4
20260508004304 55 115 0.0 1.0 0.00 0.00 0.00 99 1010.7
20260508004205 55 65 0.0 0.0 0.00 0.44 0.26 93 1009.5
20260508003755 55 315 0.0 1.0 0.00 0.00 0.00 99 1011.0
20260508003253 55 80 0.0 1.0 0.00 0.00 0.00 99 1010.9
20260508002749 55 142 0.0 2.0 0.00 0.00 0.00 99 1010.4
20260508002247 55 58 1.0 2.0 0.00 0.00 0.00 98 1010.7
20260508001742 55 89 0.0 1.0 0.00 0.00 0.00 98 1011.1
20260508001238 55 5 0.0 2.0 0.00 0.00 0.00 98 1010.8
20260508000734 55 343 0.0 2.0 0.00 0.00 0.00 98 1010.7
20260508000234 55 140 1.0 1.0 0.00 0.00 0.00 97 1010.4
20260508000206 55 24 1.0 2.0 0.00 0.44 0.26 93 1008.9
20260507235728 55 277 1.0 1.0 0.00 0.00 0.00 97 1009.8
20260507235705 55 174 0.0 1.0 0.00 0.44 0.26 93 1008.4
20260507235226 55 290 1.0 2.0 0.00 0.00 0.00 97 1009.8
20260507235205 55 157 0.0 1.0 0.00 0.44 0.26 93 1008.0
20260507234723 55 21 1.0 2.0 0.00 0.00 0.00 97 1009.4
20260507234705 55 140 0.0 1.0 0.00 0.44 0.26 93 1008.0
20260507234219 55 292 0.0 1.0 0.00 0.00 0.00 96 1009.4
20260507233715 55 293 0.0 1.0 0.00 0.00 0.00 97 1009.7
20260507233705 55 121 0.0 1.0 0.00 0.44 0.26 93 1008.1
20260507233214 55 129 0.0 2.0 0.00 0.00 0.00 97 1009.8
20260507233205 55 113 0.0 1.0 0.00 0.44 0.26 93 1008.3
20260507232710 55 274 0.0 2.0 0.00 0.00 0.00 97 1009.7
20260507232208 55 75 1.0 2.0 0.00 0.00 0.00 97 1009.7
20260507232205 55 100 0.0 1.0 0.00 0.44 0.26 93 1008.3
20260507231705 55 120 0.0 2.0 0.00 0.44 0.26 92 1008.4
20260507231206 56 123 1.0 2.0 0.00 0.44 0.26 93 1008.4
20260507231201 55 129 0.0 2.0 0.00 0.00 0.00 97 1009.7
20260507230705 56 161 0.0 2.0 0.00 0.44 0.26 93 1008.2
20260507230658 55 0 0.0 2.0 0.00 0.00 0.00 97 1009.7
20260507230155 55 75 0.0 2.0 0.00 0.00 0.00 97 1009.7
20260507225705 56 136 0.0 1.0 0.00 0.44 0.26 93 1007.9
20260507225654 55 50 1.0 5.0 0.00 0.00 0.00 97 1009.7
20260507225152 55 211 0.0 3.0 0.00 0.00 0.00 97 1009.5
20260507224706 56 118 0.0 2.0 0.00 0.44 0.26 93 1008.0
20260507224647 55 273 1.0 2.0 0.00 0.00 0.00 97 1009.7
20260507224206 56 119 0.0 1.0 0.00 0.44 0.26 93 1007.9
20260507224144 56 69 0.0 2.0 0.00 0.00 0.00 97 1009.5
20260507223705 56 144 0.0 1.0 0.00 0.44 0.26 93 1007.8
20260507223640 56 89 0.0 2.0 0.00 0.00 0.00 97 1009.5
20260507223137 56 104 1.0 2.0 0.00 0.00 0.00 97 1009.3
20260507222634 55 25 0.0 3.0 0.00 0.00 0.00 96 1009.2
20260507222205 56 99 0.0 1.0 0.00 0.44 0.26 92 1007.7
20260507222130 55 89 0.0 2.0 0.00 0.00 0.00 97 1009.4
20260507221627 55 291 1.0 3.0 0.00 0.00 0.00 97 1009.1
20260507221205 56 143 0.0 1.0 0.00 0.44 0.26 92 1007.7
20260507221123 55 50 0.0 2.0 0.00 0.00 0.00 98 1009.3
20260507220706 55 186 0.0 2.0 0.00 0.44 0.26 92 1007.7
20260507220620 55 58 0.0 2.0 0.00 0.00 0.00 98 1009.1
20260507220118 55 25 0.0 3.0 0.00 0.00 0.00 98 1009.3
20260507215614 55 340 2.0 2.0 0.00 0.00 0.00 98 1009.3
20260507215206 56 132 0.0 2.0 0.00 0.44 0.26 91 1007.9
20260507215112 55 269 0.0 2.0 0.00 0.00 0.00 98 1009.7
20260507214609 55 34 1.0 3.0 0.00 0.00 0.00 99 1009.6
20260507214205 56 197 1.0 3.0 0.00 0.44 0.26 91 1007.8
20260507214105 55 60 1.0 1.0 0.00 0.00 0.00 99 1009.5
20260507213705 56 92 1.0 3.0 0.00 0.44 0.26 91 1007.8
20260507213601 55 97 0.0 3.0 0.00 0.00 0.00 99 1009.2
20260507213059 55 242 0.0 2.0 0.00 0.00 0.00 99 1009.2
20260507212554 55 129 0.0 3.0 0.00 0.00 0.00 99 1009.1
20260507212051 55 89 0.0 3.0 0.00 0.00 0.00 99 1009.3
20260507211548 55 342 0.0 5.0 0.00 0.00 0.00 99 1009.1
20260507211044 55 6 2.0 4.0 0.00 0.00 0.00 99 1008.9
20260507210542 56 154 0.0 4.0 0.00 0.00 0.00 99 1008.8
20260507210038 56 5 0.0 4.0 0.00 0.00 0.00 99 1008.9
20260507205535 56 310 1.0 2.0 0.00 0.00 0.00 99 1008.5
20260507205205 58 129 1.0 5.0 0.00 0.44 0.26 92 1007.1
20260507205031 56 306 0.0 3.0 0.00 0.00 0.00 99 1008.7
20260507204705 58 90 1.0 2.0 0.00 0.44 0.26 92 1006.9
20260507204527 56 53 2.0 3.0 0.00 0.00 0.00 99 1008.6
20260507204025 57 277 0.0 2.0 0.00 0.00 0.00 99 1008.5
20260507203523 57 40 1.0 7.0 0.00 0.00 0.00 99 1008.3
20260507203205 59 87 1.0 3.0 0.00 0.44 0.26 92 1006.9
20260507203020 57 58 0.0 3.0 0.00 0.00 0.00 99 1008.5
20260507202516 57 329 2.0 3.0 0.00 0.00 0.00 99 1008.2
20260507202012 57 25 0.0 3.0 0.00 0.00 0.00 99 1008.4
20260507201705 59 190 1.0 2.0 0.00 0.44 0.26 91 1006.8
20260507201508 57 101 2.0 3.0 0.00 0.00 0.00 99 1008.6
20260507201004 57 10 0.0 2.0 0.00 0.00 0.00 99 1008.4
20260507200706 59 113 0.0 2.0 0.00 0.44 0.26 91 1006.8
20260507200500 57 153 1.0 3.0 0.00 0.00 0.00 99 1008.4
20260507195955 57 334 2.0 3.0 0.00 0.00 0.00 99 1008.4
20260507195453 57 266 1.0 2.0 0.00 0.00 0.00 99 1008.6
20260507195205 60 90 1.0 3.0 0.01 0.44 0.26 90 1006.8
20260507194951 58 316 2.0 3.0 0.00 0.00 0.00 99 1008.3
20260507194447 58 89 0.0 2.0 0.00 0.00 0.00 99 1008.4
20260507193943 58 241 0.0 3.0 0.00 0.00 0.00 99 1008.4
20260507193440 58 311 2.0 3.0 0.00 0.00 0.00 99 1008.3
20260507192937 58 347 0.0 2.0 0.00 0.00 0.00 99 1008.3
20260507192704 61 93 1.0 3.0 0.01 0.45 0.26 89 1006.7
20260507192433 58 47 1.0 3.0 0.00 0.00 0.00 99 1008.1
20260507192204 61 116 2.0 3.0 0.01 0.46 0.26 88 1006.6
20260507191930 58 343 2.0 5.0 0.00 0.00 0.00 99 1008.4
20260507191705 62 98 2.0 5.0 0.01 0.46 0.26 88 1006.6
20260507191426 58 82 1.0 3.0 0.00 0.00 0.00 99 1008.5
20260507191205 63 99 2.0 3.0 0.01 0.47 0.26 87 1006.9
20260507190922 58 19 2.0 3.0 0.00 0.00 0.00 99 1008.7
20260507190421 59 309 3.0 3.0 0.00 0.00 0.00 99 1008.6
20260507190205 64 122 1.0 2.0 0.01 0.47 0.26 87 1006.7
20260507185920 59 318 0.0 3.0 0.00 0.00 0.00 99 1008.2
20260507185416 60 15 0.0 3.0 0.00 0.00 0.00 99 1008.0
20260507184913 60 318 1.0 4.0 0.00 0.00 0.00 99 1007.4
20260507184705 66 113 1.0 3.0 0.00 0.46 0.25 88 1005.6
20260507184411 60 35 1.0 2.0 0.00 0.00 0.00 99 1007.6
20260507184205 66 102 1.0 3.0 0.00 0.46 0.25 88 1006.1
20260507183908 61 322 3.0 3.0 0.00 0.00 0.00 99 1008.3
20260507183705 67 105 1.0 3.0 0.00 0.46 0.25 90 1006.2
20260507183405 61 32 2.0 3.0 0.00 0.00 0.00 99 1008.1
20260507183206 68 119 0.0 2.0 0.00 0.46 0.25 91 1006.2
20260507182903 62 333 4.0 5.0 0.00 0.00 0.00 99 1008.2
20260507182357 63 323 0.0 4.0 0.00 0.00 0.00 99 1008.1
20260507182205 69 97 1.0 2.0 0.00 0.46 0.25 93 1006.2
20260507181855 64 324 3.0 4.0 0.00 0.00 0.00 99 1007.5
20260507181705 70 83 0.0 3.0 0.00 0.46 0.25 94 1005.6
20260507181350 64 158 3.0 4.0 0.00 0.00 0.00 99 1007.1
20260507180847 65 80 1.0 4.0 0.00 0.00 0.00 99 1007.7
20260507180704 70 262 3.0 6.0 0.00 0.46 0.25 95 1005.7
20260507180344 69 323 2.0 3.0 0.00 0.00 0.00 99 1007.5
20260507175840 69 309 0.0 1.0 0.00 0.00 0.00 99 1007.4
20260507175705 70 18 0.0 2.0 0.00 0.46 0.25 95 1005.7
20260507175337 69 242 0.0 2.0 0.00 0.00 0.00 99 1007.8
20260507174834 69 333 0.0 3.0 0.00 0.00 0.00 99 1007.7
20260507174332 68 309 0.0 1.0 0.00 0.00 0.00 99 1008.0
20260507174205 69 65 1.0 2.0 0.00 0.46 0.25 95 1006.2
20260507173829 68 269 0.0 0.0 0.00 0.00 0.00 99 1008.1
20260507173705 69 331 1.0 2.0 0.00 0.46 0.25 95 1006.2
20260507173326 68 262 0.0 1.0 0.00 0.00 0.00 99 1007.8
20260507173205 69 47 1.0 2.0 0.00 0.46 0.25 95 1006.1
20260507172822 68 158 0.0 2.0 0.00 0.00 0.00 99 1007.6
20260507172319 68 287 1.0 2.0 0.00 0.00 0.00 99 1007.5
20260507171815 68 302 1.0 1.0 0.00 0.00 0.00 99 1007.4
20260507171312 68 161 0.0 3.0 0.00 0.00 0.00 99 1007.1
20260507171205 69 171 1.0 3.0 0.00 0.46 0.25 96 1005.6
20260507170809 69 293 0.0 1.0 0.00 0.00 0.00 99 1007.2
20260507170704 69 128 0.0 3.0 0.00 0.46 0.25 95 1005.6
20260507170306 68 164 0.0 3.0 0.00 0.00 0.00 99 1007.3
20260507170205 69 111 0.0 3.0 0.00 0.46 0.25 96 1005.6
20260507165801 69 300 1.0 3.0 0.00 0.00 0.00 99 1007.4
20260507165258 69 157 0.0 2.0 0.00 0.00 0.00 99 1007.4
20260507165205 69 179 1.0 2.0 0.00 0.46 0.25 95 1005.8
20260507164754 68 117 0.0 2.0 0.00 0.00 0.00 99 1007.5
20260507164705 68 183 1.0 2.0 0.00 0.46 0.25 95 1006.0
20260507164251 68 315 0.0 1.0 0.00 0.00 0.00 99 1008.0
20260507164205 68 303 0.0 1.0 0.00 0.46 0.25 95 1006.2
20260507163748 68 217 0.0 1.0 0.00 0.00 0.00 99 1007.9
20260507163705 68 305 0.0 2.0 0.01 0.46 0.25 95 1006.2
20260507163246 68 336 0.0 2.0 0.00 0.00 0.00 99 1008.2
20260507163205 68 5 0.0 2.0 0.01 0.46 0.25 95 1006.6
20260507162742 68 242 0.0 2.0 0.00 0.00 0.00 99 1008.6
20260507162238 68 117 0.0 2.0 0.00 0.00 0.00 99 1008.5
20260507161735 68 252 0.0 3.0 0.00 0.00 0.00 99 1008.8
20260507161704 68 73 1.0 3.0 0.01 0.46 0.25 95 1007.1
20260507161231 68 233 0.0 4.0 0.00 0.00 0.00 99 1008.7
20260507160727 67 275 0.0 2.0 0.00 0.00 0.00 99 1009.0
20260507160705 68 345 0.0 2.0 0.01 0.46 0.25 95 1007.3
20260507160224 67 130 0.0 2.0 0.00 0.00 0.00 99 1008.9
20260507155720 67 297 0.0 2.0 0.00 0.00 0.00 99 1009.3
20260507155216 67 311 0.0 3.0 0.00 0.00 0.00 99 1008.9
20260507154713 68 294 0.0 1.0 0.00 0.00 0.00 99 1008.9
20260507154210 68 311 1.0 2.0 0.00 0.00 0.00 99 1008.8
20260507154205 68 71 1.0 2.0 0.01 0.46 0.25 95 1007.1
20260507153707 68 280 1.0 3.0 0.00 0.00 0.00 99 1008.5
20260507153705 68 47 1.0 1.0 0.00 0.45 0.24 95 1006.7
20260507153205 67 167 0.0 2.0 0.00 0.45 0.24 95 1006.5
20260507153203 68 104 0.0 2.0 0.00 0.00 0.00 99 1008.1
20260507152700 68 159 0.0 1.0 0.00 0.00 0.00 99 1008.6
20260507152156 67 286 0.0 1.0 0.00 0.00 0.00 99 1008.6
20260507151705 67 1 0.0 1.0 0.00 0.45 0.24 95 1007.0
20260507151652 67 257 0.0 2.0 0.00 0.00 0.00 99 1008.8
20260507151205 67 34 0.0 2.0 0.00 0.45 0.24 95 1006.6
20260507151149 67 325 0.0 2.0 0.00 0.00 0.00 99 1008.4
20260507150646 67 299 0.0 2.0 0.00 0.00 0.00 99 1008.3
20260507150143 67 116 0.0 2.0 0.00 0.00 0.00 99 1008.8
20260507145638 67 75 0.0 1.0 0.00 0.00 0.00 99 1008.8
20260507145136 67 247 0.0 4.0 0.00 0.00 0.00 99 1009.0
20260507144704 67 126 1.0 3.0 0.01 0.45 0.24 95 1007.3
20260507144632 67 164 0.0 2.0 0.00 0.00 0.00 99 1009.2
20260507144130 67 294 2.0 3.0 0.00 0.00 0.00 99 1009.2
20260507143705 67 340 1.0 3.0 0.01 0.45 0.24 94 1007.5
20260507143626 66 150 0.0 3.0 0.00 0.00 0.00 99 1009.1
20260507143124 66 44 1.0 3.0 0.00 0.00 0.00 99 1009.3
20260507142705 67 179 1.0 5.0 0.01 0.45 0.24 95 1007.5
20260507142619 67 296 2.0 3.0 0.00 0.00 0.00 99 1009.1
20260507142116 67 242 0.0 3.0 0.00 0.00 0.00 99 1009.2
20260507141612 67 104 0.0 3.0 0.00 0.00 0.00 99 1009.1
20260507141109 67 354 0.0 4.0 0.00 0.00 0.00 99 1009.4
20260507140704 67 113 0.0 3.0 0.01 0.45 0.24 95 1007.7
20260507140606 67 119 0.0 2.0 0.00 0.00 0.00 99 1009.5
20260507140204 68 25 1.0 3.0 0.01 0.45 0.24 95 1007.7
20260507140103 67 296 1.0 2.0 0.00 0.00 0.00 99 1009.7
20260507135704 68 62 0.0 1.0 0.00 0.44 0.23 95 1007.7
20260507135600 67 103 0.0 2.0 0.00 0.00 0.00 99 1009.5
20260507135205 67 54 1.0 2.0 0.00 0.44 0.23 95 1007.7
20260507135057 67 326 0.0 1.0 0.00 0.00 0.00 99 1009.5
20260507134704 68 5 0.0 2.0 0.00 0.44 0.23 95 1007.7
20260507134553 67 89 0.0 1.0 0.00 0.00 0.00 99 1009.4
20260507134205 68 359 0.0 1.0 0.00 0.44 0.23 95 1007.7
20260507134050 67 301 0.0 1.0 0.00 0.00 0.00 99 1009.6
20260507133705 67 96 0.0 3.0 0.00 0.44 0.23 95 1007.7
20260507133546 67 278 0.0 3.0 0.00 0.00 0.00 99 1009.4
20260507133206 67 6 0.0 5.0 0.00 0.44 0.23 95 1007.7
20260507133044 67 66 0.0 0.0 0.00 0.00 0.00 99 1009.5
20260507132540 67 269 0.0 2.0 0.00 0.00 0.00 99 1009.4
20260507132037 67 290 0.0 1.0 0.00 0.00 0.00 99 1009.3
20260507131704 67 29 0.0 1.0 0.00 0.44 0.23 95 1007.7
20260507131533 67 15 0.0 0.0 0.00 0.00 0.00 99 1009.4
20260507131031 67 15 0.0 1.0 0.00 0.00 0.00 99 1009.6
20260507130528 67 333 0.0 1.0 0.00 0.00 0.00 99 1009.2
20260507130205 67 125 0.0 1.0 0.00 0.44 0.23 95 1007.6
20260507130026 67 5 0.0 1.0 0.00 0.00 0.00 99 1009.2
20260507125705 67 122 0.0 1.0 0.00 0.44 0.23 95 1007.5
20260507125524 67 62 0.0 1.0 0.00 0.00 0.00 99 1009.2
20260507125205 67 177 0.0 1.0 0.00 0.44 0.23 94 1007.6
20260507125021 67 299 0.0 2.0 0.00 0.00 0.00 99 1009.3
20260507124705 67 244 0.0 5.0 0.00 0.44 0.23 94 1007.6
20260507124517 67 316 2.0 2.0 0.00 0.00 0.00 99 1009.4
20260507124204 67 197 1.0 3.0 0.00 0.44 0.23 94 1007.6
20260507124016 66 240 0.0 2.0 0.00 0.00 0.00 99 1009.3
20260507123513 66 154 0.0 2.0 0.00 0.00 0.00 99 1009.1
20260507123204 67 154 1.0 3.0 0.00 0.44 0.23 94 1007.6
20260507123010 66 295 1.0 2.0 0.00 0.00 0.00 99 1009.3
20260507122505 66 205 0.0 2.0 0.00 0.00 0.00 99 1009.4
20260507122001 66 269 0.0 2.0 0.00 0.00 0.00 99 1009.3
20260507121704 67 193 0.0 2.0 0.00 0.44 0.23 94 1007.7
20260507121456 66 157 0.0 1.0 0.00 0.00 0.00 99 1009.6
20260507120953 66 147 0.0 1.0 0.00 0.00 0.00 99 1009.5
20260507120704 66 178 1.0 2.0 0.00 0.44 0.23 94 1007.7
20260507120449 66 146 0.0 5.0 0.00 0.00 0.00 99 1009.4
20260507115946 66 117 0.0 2.0 0.00 0.00 0.00 99 1009.7
20260507115442 66 269 0.0 2.0 0.00 0.00 0.00 99 1009.8
20260507114938 66 124 0.0 1.0 0.00 0.00 0.00 99 1009.9
20260507114704 66 176 0.0 1.0 0.01 0.44 0.23 94 1008.2
20260507114434 66 147 0.0 2.0 0.00 0.00 0.00 99 1009.7
20260507113932 66 297 0.0 2.0 0.00 0.00 0.00 99 1010.0
20260507113705 66 77 1.0 3.0 0.01 0.44 0.23 94 1008.2
20260507113429 66 164 0.0 2.0 0.00 0.00 0.00 99 1009.9
20260507113205 66 145 0.0 3.0 0.01 0.44 0.23 94 1008.3
20260507112926 66 129 0.0 1.0 0.00 0.00 0.00 99 1010.1
20260507112424 66 104 0.0 1.0 0.00 0.00 0.00 99 1009.8
20260507112205 66 156 0.0 1.0 0.01 0.44 0.23 94 1008.2
20260507111921 66 322 0.0 1.0 0.00 0.00 0.00 99 1009.9
20260507111418 66 126 1.0 2.0 0.00 0.00 0.00 99 1009.9
20260507111204 66 156 0.0 1.0 0.01 0.44 0.23 94 1008.3
20260507110914 66 237 1.0 1.0 0.00 0.00 0.00 99 1010.0
20260507110410 66 224 0.0 2.0 0.00 0.00 0.00 99 1010.1
20260507105907 66 142 0.0 2.0 0.00 0.00 0.00 99 1010.0
20260507105404 66 224 0.0 1.0 0.00 0.00 0.00 99 1009.9
20260507105205 66 93 0.0 1.0 0.00 0.43 0.22 94 1008.2
20260507104901 66 110 0.0 2.0 0.00 0.00 0.00 99 1009.9
20260507104357 66 69 0.0 1.0 0.00 0.00 0.00 99 1009.6
20260507104204 66 170 0.0 2.0 0.00 0.43 0.22 93 1007.9
20260507103853 66 187 0.0 2.0 0.00 0.00 0.00 99 1009.7
20260507103705 66 184 0.0 0.0 0.00 0.43 0.22 94 1008.1
20260507103350 66 150 0.0 2.0 0.00 0.00 0.00 99 1009.8
20260507102846 66 113 0.0 1.0 0.00 0.00 0.00 99 1009.7
20260507102343 66 269 0.0 1.0 0.00 0.00 0.00 99 1009.7
20260507102205 66 184 0.0 1.0 0.01 0.43 0.22 94 1007.9
20260507101839 66 60 0.0 2.0 0.00 0.00 0.00 99 1009.6
20260507101705 66 116 0.0 1.0 0.01 0.43 0.22 93 1007.8
20260507101334 66 140 0.0 3.0 0.00 0.00 0.00 99 1009.6
20260507101205 66 97 0.0 1.0 0.01 0.43 0.22 94 1007.9
20260507100831 66 161 2.0 2.0 0.00 0.00 0.00 99 1009.7
20260507100705 66 28 0.0 1.0 0.01 0.43 0.22 93 1008.2
20260507100329 66 140 1.0 2.0 0.00 0.00 0.00 99 1009.9
20260507100205 66 28 0.0 1.0 0.01 0.43 0.22 93 1008.2
20260507095827 66 157 0.0 2.0 0.00 0.00 0.00 99 1009.8
20260507095323 66 333 0.0 2.0 0.00 0.00 0.00 99 1009.6
20260507094821 66 154 0.0 2.0 0.00 0.00 0.00 99 1009.3
20260507094317 66 326 0.0 3.0 0.00 0.00 0.00 99 1009.5
20260507094205 66 69 0.0 1.0 0.02 0.43 0.22 93 1008.0
20260507093814 66 78 1.0 2.0 0.00 0.00 0.00 99 1009.5
20260507093704 66 91 0.0 1.0 0.02 0.43 0.22 93 1007.8
20260507093312 66 136 0.0 2.0 0.00 0.00 0.00 99 1009.5
20260507093204 66 91 0.0 1.0 0.02 0.43 0.22 93 1007.9
20260507092810 66 116 0.0 2.0 0.00 0.00 0.00 99 1009.5
20260507092705 66 141 0.0 0.0 0.01 0.42 0.21 93 1007.8
20260507092307 66 219 0.0 1.0 0.00 0.00 0.00 99 1009.6
20260507091803 66 32 0.0 2.0 0.00 0.00 0.00 99 1009.2
20260507091705 66 141 0.0 1.0 0.01 0.42 0.21 93 1007.8
20260507091259 66 85 0.0 3.0 0.00 0.00 0.00 99 1009.5
20260507090759 65 161 1.0 2.0 0.00 0.00 0.00 99 1009.6
20260507090704 66 112 0.0 1.0 0.02 0.42 0.21 93 1008.0
20260507090256 65 62 0.0 1.0 0.00 0.00 0.00 99 1009.7
20260507085753 65 124 0.0 2.0 0.00 0.00 0.00 99 1009.6
20260507085704 66 111 0.0 1.0 0.02 0.42 0.21 93 1008.0
20260507085250 65 89 0.0 2.0 0.00 0.00 0.00 99 1009.7
20260507085204 66 137 0.0 2.0 0.02 0.42 0.21 93 1008.2
20260507084748 65 289 0.0 1.0 0.00 0.00 0.00 99 1009.9
20260507084244 65 162 0.0 1.0 0.00 0.00 0.00 99 1009.9
20260507084204 66 131 0.0 1.0 0.02 0.41 0.20 93 1008.3
20260507083741 65 304 0.0 0.0 0.00 0.00 0.00 99 1010.0
20260507083238 65 327 2.0 3.0 0.00 0.00 0.00 99 1010.4
20260507083204 66 43 1.0 6.0 0.02 0.41 0.20 93 1008.2
20260507082734 65 113 0.0 1.0 0.00 0.00 0.00 99 1010.2
20260507082229 65 309 0.0 0.0 0.00 0.00 0.00 99 1010.5
20260507081727 65 319 1.0 2.0 0.00 0.00 0.00 99 1010.6
20260507081704 65 105 0.0 1.0 0.02 0.41 0.20 92 1008.8
20260507081223 65 11 0.0 2.0 0.00 0.00 0.00 99 1010.4
20260507081205 65 112 0.0 1.0 0.02 0.40 0.19 92 1008.7
20260507080720 65 317 0.0 1.0 0.00 0.00 0.00 99 1010.4
20260507080704 65 98 0.0 1.0 0.02 0.40 0.19 92 1008.6
20260507080216 65 62 0.0 1.0 0.00 0.00 0.00 99 1010.2
20260507080205 65 98 0.0 1.0 0.02 0.40 0.19 92 1008.6
20260507075711 65 255 0.0 3.0 0.00 0.00 0.00 99 1010.5
20260507075704 65 80 1.0 2.0 0.02 0.40 0.19 92 1008.5
20260507075208 65 317 1.0 2.0 0.00 0.00 0.00 99 1009.7
20260507074704 65 146 1.0 2.0 0.00 0.00 0.00 99 1010.1
20260507074204 65 133 0.0 0.0 0.02 0.39 0.18 91 1008.8
20260507073659 65 55 0.0 1.0 0.00 0.00 0.00 99 1010.6
20260507073155 65 348 1.0 2.0 0.00 0.00 0.00 99 1010.7
20260507072653 65 66 0.0 2.0 0.00 0.00 0.00 99 1010.6
20260507072150 65 0 0.0 2.0 0.00 0.00 0.00 99 1010.7
20260507071704 65 123 0.0 1.0 0.03 0.39 0.18 91 1008.7
20260507071648 65 89 0.0 2.0 0.00 0.00 0.00 99 1010.3
20260507071205 65 174 0.0 1.0 0.03 0.38 0.17 91 1008.9
20260507071144 65 142 0.0 3.0 0.00 0.00 0.00 99 1010.4
20260507070704 65 167 0.0 1.0 0.03 0.38 0.17 91 1009.2
20260507070641 65 190 0.0 2.0 0.00 0.00 0.00 99 1010.7
20260507070138 65 177 0.0 2.0 0.00 0.00 0.00 99 1010.8
20260507065704 65 167 0.0 0.0 0.04 0.38 0.17 91 1009.4
20260507065634 65 166 0.0 1.0 0.00 0.00 0.00 99 1011.0
20260507065131 65 193 0.0 1.0 0.00 0.00 0.00 99 1011.0
20260507064705 65 167 0.0 0.0 0.04 0.37 0.16 91 1009.4
20260507064628 65 38 0.0 1.0 0.00 0.00 0.00 99 1011.1
20260507064127 65 89 0.0 0.0 0.00 0.00 0.00 99 1011.2
20260507063624 65 74 0.0 1.0 0.00 0.00 0.00 99 1010.9
20260507063204 66 167 0.0 0.0 0.06 0.37 0.16 90 1009.4
20260507063121 65 129 0.0 1.0 0.00 0.00 0.00 99 1011.2
20260507062618 65 86 0.0 1.0 0.00 0.00 0.00 99 1011.4
20260507062116 65 62 0.0 0.0 0.00 0.00 0.00 99 1011.5
20260507061613 65 135 0.0 2.0 0.00 0.00 0.00 99 1011.5
20260507061204 66 167 0.0 1.0 0.09 0.35 0.14 90 1009.9
20260507061111 65 129 0.0 1.0 0.00 0.00 0.00 99 1011.9
20260507060609 65 297 0.0 0.0 0.00 0.00 0.00 99 1012.0
20260507060105 65 322 0.0 1.0 0.00 0.00 0.00 99 1011.7
20260507055705 66 167 0.0 0.0 0.15 0.34 0.13 90 1010.0
20260507055600 65 58 0.0 1.0 0.00 0.00 0.00 99 1011.8
20260507055205 66 167 0.0 0.0 0.17 0.34 0.13 89 1009.8
20260507055056 65 62 0.0 1.0 0.00 0.00 0.00 99 1011.4